Weather History for Buffalo, MN

Change the Weather History Date:

Saturday, August 17, 2013

  Actual Average (KSTC) Record (KSTC)
Temperature  
Mean Temperature 66 °F 68 °F  
Max Temperature 79 °F 80 °F 94 °F (1934)
Min Temperature 54 °F 56 °F 41 °F (1977)
Degree Days  
Heating Degree Days 0 1  
Month to date heating degree days 17  
Since 1 June heating degree days 112  
Since 1 July heating degree days 34  
Cooling Degree Days 2 4  
Month to date cooling degree days 81  
Year to date cooling degree days 383  
Since 1 June cooling degree days 358  
Growing Degree Days 16 (Base 50)    
Moisture  
Dew Point 54 °F    
Average Humidity 64    
Maximum Humidity 88    
Minimum Humidity 40    
Precipitation  
Precipitation 0.00 in 0.12 in 2.76 in (1926)
Month to date precipitation 1.98  
Year to date precipitation 17.77  
Snow  
Snow 0.00 in 0.00 in 0.00 in ()
Month to date snowfall 0.0  
Since 1 June snowfall 0.0  
Since 1 July snowfall 0.0  
Snow Depth -    
Sea Level Pressure  
Sea Level Pressure 30.17 in    
Wind  
Wind Speed 3 mph (South)    
Max Wind Speed 13 mph    
Max Gust Speed 20 mph    
Visibility 10 miles    
Events      
T = Trace of Precipitation, MM = Missing Value Source: NWS Daily Summary

Daily Weather History Graph

Daily Weather History Graph

Search for Another Location

Airport:

Trip Planner

Search our weather history database for the weather conditions in past years. The results will help you decide how hot, cold, wet, or windy it might be!

Date:

Astronomy

Aug. 17, 2013 Rise Set
Actual Time 6:19 AM CDT 8:18 PM CDT
Civil Twilight 5:47 AM CDT 8:50 PM CDT
Nautical Twilight 5:08 AM CDT 9:29 PM CDT
Astronomical Twilight 4:25 AM CDT 10:11 PM CDT
Moon 5:39 PM CDT (8/17) 2:18 AM CDT (8/17)
Length of Visible Light 15h 02m
Length of Day
13h 58m
Waxing Gibbous, 84% of the Moon is Illuminated
Aug 17
Waxing Gibbous
Aug 20
Full
Aug 28
Last Quarter
Sep 5
New
Sep 12
First Quarter

Hourly Weather History & Observations

Time (CDT) Temp. Dew Point Humidity Pressure Visibility Wind Dir Wind Speed Gust Speed Precip Events Conditions
12:14 AM 58.1 °F 52.5 °F 82% 30.19 in 10.0 mi Calm Calm - N/A   Clear
12:34 AM 58.3 °F 52.7 °F 82% 30.19 in 10.0 mi Calm Calm - N/A   Clear
12:54 AM 56.5 °F 52.0 °F 85% 30.19 in 10.0 mi Calm Calm - N/A   Clear
1:14 AM 56.3 °F 52.3 °F 87% 30.19 in 10.0 mi Calm Calm - N/A   Clear
1:34 AM 56.7 °F 52.0 °F 84% 30.19 in 10.0 mi Calm Calm - N/A   Clear
1:54 AM 55.6 °F 51.8 °F 87% 30.19 in 10.0 mi Calm Calm - N/A   Clear
2:14 AM 55.6 °F 51.8 °F 87% 30.19 in 10.0 mi Calm Calm - N/A   Clear
2:34 AM 55.6 °F 52.2 °F 88% 30.19 in 10.0 mi Calm Calm - N/A   Clear
2:54 AM 55.0 °F 50.9 °F 86% 30.19 in 10.0 mi Calm Calm - N/A   Clear
3:14 AM 54.1 °F 50.2 °F 86% 30.19 in 10.0 mi Calm Calm - N/A   Clear
3:34 AM 54.7 °F 50.2 °F 85% 30.19 in 10.0 mi Calm Calm - N/A   Clear
3:54 AM 54.9 °F 51.3 °F 88% 30.19 in 10.0 mi Calm Calm - N/A   Clear
4:14 AM 56.1 °F 52.5 °F 88% 30.19 in 10.0 mi Calm Calm - N/A   Clear
4:34 AM 57.0 °F 52.2 °F 84% 30.20 in 10.0 mi Calm Calm - N/A   Clear
4:54 AM 55.6 °F 52.0 °F 88% 30.19 in 10.0 mi Calm Calm - N/A   Clear
5:14 AM 56.5 °F 52.9 °F 88% 30.20 in 10.0 mi Calm Calm - N/A   Clear
5:34 AM 54.9 °F 50.7 °F 86% 30.20 in 10.0 mi Calm Calm - N/A   Clear
5:54 AM 55.4 °F 51.8 °F 88% 30.20 in 10.0 mi Calm Calm - N/A   Clear
6:14 AM 55.8 °F 51.8 °F 87% 30.20 in 10.0 mi Calm Calm - N/A   Clear
6:34 AM 56.7 °F 52.0 °F 84% 30.20 in 10.0 mi Calm Calm - N/A   Clear
6:54 AM 57.2 °F 52.3 °F 84% 30.20 in 10.0 mi Calm Calm - N/A   Clear
7:14 AM 58.1 °F 52.9 °F 83% 30.21 in 10.0 mi SSE 3.5 mph - N/A   Clear
7:34 AM 58.6 °F 53.2 °F 82% 30.21 in 10.0 mi Calm Calm - N/A   Clear
7:54 AM 60.3 °F 54.0 °F 80% 30.21 in 10.0 mi SSE 3.5 mph - N/A   Clear
8:14 AM 61.7 °F 54.7 °F 78% 30.21 in 10.0 mi SSE 3.5 mph - N/A   Clear
8:34 AM 62.8 °F 54.7 °F 75% 30.21 in 10.0 mi South 3.5 mph - N/A   Clear
8:54 AM 64.4 °F 55.2 °F 72% 30.21 in 10.0 mi South 4.6 mph - N/A   Clear
9:14 AM 66.4 °F 54.9 °F 66% 30.20 in 10.0 mi South 4.6 mph - N/A   Clear
9:34 AM 68.2 °F 55.6 °F 64% 30.20 in 10.0 mi SSE 5.8 mph - N/A   Clear
9:54 AM 69.6 °F 55.0 °F 60% 30.20 in 10.0 mi South 8.1 mph - N/A   Clear
10:14 AM 70.9 °F 54.3 °F 56% 30.20 in 10.0 mi SSE 6.9 mph - N/A   Clear
10:34 AM 71.8 °F 54.5 °F 54% 30.20 in 10.0 mi SSW 6.9 mph - N/A   Clear
10:54 AM 72.7 °F 54.9 °F 53% 30.20 in 10.0 mi South 8.1 mph - N/A   Clear
11:14 AM 73.4 °F 54.0 °F 50% 30.21 in 10.0 mi SSW 12.7 mph 17.3 mph N/A   Clear
11:34 AM 74.3 °F 54.0 °F 49% 30.20 in 10.0 mi South 10.4 mph 17.3 mph N/A   Clear
11:54 AM 75.0 °F 53.1 °F 46% 30.20 in 10.0 mi South 10.4 mph 17.3 mph N/A   Clear
12:14 PM 76.1 °F 53.8 °F 46% 30.19 in 10.0 mi South 10.4 mph 16.1 mph N/A   Clear
12:34 PM 76.3 °F 52.5 °F 43% 30.19 in 10.0 mi South 10.4 mph - N/A   Clear
12:54 PM 77.0 °F 53.6 °F 44% 30.19 in 10.0 mi SSW 9.2 mph - N/A   Clear
1:14 PM 77.0 °F 53.4 °F 44% 30.18 in 10.0 mi South 6.9 mph - N/A   Clear
1:34 PM 77.9 °F 53.2 °F 42% 30.17 in 10.0 mi South 11.5 mph - N/A   Scattered Clouds
1:54 PM 77.9 °F 54.0 °F 43% 30.17 in 10.0 mi South 10.4 mph - N/A   Scattered Clouds
2:14 PM 78.8 °F 54.5 °F 43% 30.16 in 10.0 mi South 10.4 mph - N/A   Scattered Clouds
2:34 PM 77.9 °F 54.0 °F 43% 30.16 in 10.0 mi South 6.9 mph - N/A   Scattered Clouds
2:54 PM 78.3 °F 54.3 °F 43% 30.15 in 10.0 mi South 6.9 mph - N/A   Scattered Clouds
3:14 PM 78.8 °F 54.3 °F 43% 30.15 in 10.0 mi South 9.2 mph 19.6 mph N/A   Scattered Clouds
3:34 PM 78.8 °F 53.8 °F 42% 30.15 in 10.0 mi South 10.4 mph 16.1 mph N/A   Scattered Clouds
3:54 PM 79.5 °F 53.8 °F 41% 30.15 in 10.0 mi South 11.5 mph 17.3 mph N/A   Clear
4:14 PM 78.3 °F 53.8 °F 43% 30.14 in 10.0 mi SSE 12.7 mph 16.1 mph N/A   Scattered Clouds
4:34 PM 79.7 °F 53.6 °F 40% 30.14 in 10.0 mi South 8.1 mph - N/A   Scattered Clouds
4:54 PM 79.3 °F 54.1 °F 42% 30.14 in 10.0 mi SSE 9.2 mph 17.3 mph N/A   Scattered Clouds
5:14 PM 78.1 °F 53.4 °F 42% 30.13 in 10.0 mi South 8.1 mph - N/A   Scattered Clouds
5:34 PM 78.3 °F 53.2 °F 42% 30.13 in 10.0 mi SSE 6.9 mph 17.3 mph N/A   Scattered Clouds
5:54 PM 78.1 °F 53.8 °F 43% 30.13 in 10.0 mi South 9.2 mph - N/A   Clear
6:14 PM 77.9 °F 53.4 °F 43% 30.13 in 10.0 mi South 9.2 mph - N/A   Clear
6:34 PM 77.9 °F 54.0 °F 43% 30.12 in 10.0 mi SSE 8.1 mph - N/A   Clear
6:54 PM 77.0 °F 54.5 °F 46% 30.12 in 10.0 mi SSE 8.1 mph - N/A   Clear
7:14 PM 76.1 °F 55.0 °F 48% 30.12 in 10.0 mi SSE 4.6 mph - N/A   Clear
7:34 PM 75.2 °F 55.6 °F 50% 30.12 in 10.0 mi SSE 4.6 mph - N/A   Clear
7:54 PM 73.6 °F 55.6 °F 53% 30.12 in 10.0 mi SSE 4.6 mph - N/A   Clear
8:14 PM 72.5 °F 56.5 °F 57% 30.12 in 10.0 mi Calm Calm - N/A   Clear
8:34 PM 70.7 °F 56.1 °F 60% 30.12 in 10.0 mi Calm Calm - N/A   Clear
8:54 PM 69.1 °F 55.9 °F 63% 30.12 in 10.0 mi Calm Calm - N/A   Clear
9:14 PM 68.0 °F 55.8 °F 65% 30.13 in 10.0 mi SE 3.5 mph - N/A   Clear
9:34 PM 67.3 °F 55.4 °F 66% 30.13 in 10.0 mi SE 3.5 mph - N/A   Clear
9:54 PM 67.3 °F 55.4 °F 66% 30.13 in 10.0 mi SSE 3.5 mph - N/A   Clear
10:14 PM 67.1 °F 55.6 °F 66% 30.13 in 10.0 mi SSE 3.5 mph - N/A   Clear
10:34 PM 66.4 °F 55.4 °F 68% 30.12 in 10.0 mi SSE 4.6 mph - N/A   Clear
10:54 PM 66.4 °F 55.4 °F 68% 30.12 in 10.0 mi SSE 4.6 mph - N/A   Clear
11:14 PM 65.7 °F 54.9 °F 68% 30.12 in 10.0 mi SSE 4.6 mph - N/A   Clear
11:34 PM 65.7 °F 54.5 °F 67% 30.12 in 10.0 mi SSE 3.5 mph - N/A   Clear
11:54 PM 65.7 °F 54.0 °F 66% 30.12 in 10.0 mi SSE 3.5 mph - N/A   Clear